Simultaneous Nadir Overpasses (SNOs) Predictions

Prediction of SNOs between GOES-17 and AQUA Satellite Orbit:

Table of predicted SNOs for the next 14.0 days since TLE Epoch: 8/30/2019
Index Date Time (GOES-17) GOES-17 Lat,Lon AQUA Lat,Lon Distance(km) Time Diff (sec)
1 09/01/2019 10:30:31 -0.02,-137.20 -0.68,-134.20 341.47 80
2 09/01/2019 22:51:55 0.02,-137.20 -0.44,-139.39 249.30 80
3 09/03/2019 22:42:23 0.02,-137.18 0.16,-136.43 85.73 80
4 09/05/2019 22:30:12 0.03,-137.17 0.82,-133.48 419.99 80
5 09/06/2019 10:51:27 -0.03,-137.16 0.30,-138.63 166.66 80
6 09/08/2019 10:36:36 -0.03,-137.14 -0.37,-135.68 166.98 80
7 09/08/2019 22:58:00 0.03,-137.13 -0.76,-140.87 424.41 80
8 09/10/2019 22:45:48 0.03,-137.10 -0.15,-137.90 91.29 80
9 09/12/2019 22:36:16 0.03,-137.07 0.46,-134.94 241.59 80
10 09/13/2019 10:57:32 -0.03,-137.07 0.59,-140.11 345.31 80




NCC Satellite Simultaneous Nadir Overpasses (SNOs) Prediction Service
